Theta_e
323 323 324 325 329 333 335 334 336 334 339 339 340 340 347 344 347 353 357 357 357 356 355 352 348 344 344 344 345 345 345 344 343 342 341 339 337 336 336 338 338 335 334 332
323 320 322 325 327 330 332 332 335 335 336 335 336 341 346 346 350 355 357 357 358 358 356 352 347 344 344 345 345 344 343 342 340 339 337 335 333 332 331 331 331 333 330 328
326 324 324 326 327 329 329 332 333 335 337 338 342 345 346 346 347 355 357 358 359 358 355 352 347 346 346 346 345 344 342 340 339 336 335 332 330 327 326 325 325 324 323 323
330 330 329 328 325 328 329 330 332 335 337 338 341 343 343 344 345 352 356 358 358 357 354 352 347 347 346 345 344 342 341 339 337 335 333 329 326 323 321 322 321 322 318 319
337 334 330 329 338 337 337 334 334 337 339 343 344 343 344 344 347 349 355 356 357 354 352 349 346 347 347 346 345 342 341 339 336 333 331 327 324 321 317 321 318 319 320 319
330 335 332 333 340 340 340 335 338 341 343 344 346 347 346 345 348 349 353 354 355 352 350 348 347 347 347 346 344 341 339 336 333 332 328 324 321 319 315 317 318 318 319 318
333 335 333 329 339 339 342 335 341 342 345 344 348 347 347 343 351 353 355 355 353 351 350 348 347 347 347 346 343 337 333 331 329 326 323 318 316 316 318 319 319 318 317 314
341 339 339 339 339 343 343 342 341 341 345 345 347 347 349 343 355 357 357 354 353 352 351 348 347 348 346 344 336 332 330 327 325 324 319 318 318 317 316 319 320 320 317 315
343 343 342 341 340 339 338 341 341 340 343 345 344 346 351 345 354 357 356 354 353 351 346 347 347 346 344 335 333 329 325 322 322 321 319 317 321 321 319 320 319 319 318 317
340 341 338 338 338 337 337 339 338 339 341 343 343 346 352 352 352 355 355 353 351 346 344 343 342 344 339 333 330 327 324 322 321 320 319 318 317 317 317 316 316 315 315 315
340 339 337 335 335 334 334 336 338 341 341 343 345 349 352 353 353 353 351 346 346 343 342 338 338 335 333 330 327 326 322 320 318 316 316 315 312 312 313 312 312 314 313 312
338 337 338 337 334 335 336 338 338 341 344 344 347 349 349 349 347 344 342 341 342 337 334 333 335 330 329 327 325 322 319 317 315 316 315 314 314 313 310 311 310 310 309 308
336 334 336 336 334 334 339 340 339 339 342 348 347 347 345 344 340 338 339 337 336 335 332 327 326 325 324 322 321 319 317 317 315 316 317 317 315 314 315 312 310 310 309 307
334 333 336 334 338 337 338 341 340 343 344 346 344 342 340 338 335 337 336 333 329 327 325 323 322 320 319 317 317 318 317 316 318 318 318 317 315 314 314 313 313 312 310 308
333 333 334 334 336 337 340 341 343 343 343 342 341 339 337 336 335 332 329 328 323 322 320 320 317 317 315 316 317 318 317 316 315 316 316 314 314 314 313 313 313 312 311 311
333 333 333 333 334 336 338 340 342 344 342 341 341 338 335 331 327 326 322 321 321 320 318 318 318 317 315 317 318 316 314 312 313 314 314 314 314 313 312 312 312 312 312 311
333 336 336 335 336 335 336 336 338 343 342 342 340 336 334 332 328 323 321 322 321 318 318 318 319 315 316 318 318 318 315 314 311 313 313 313 312 312 312 312 312 312 311 311
333 333 333 335 336 337 336 336 340 342 343 339 337 335 333 331 331 325 321 321 318 317 317 317 317 315 316 316 319 318 317 315 313 312 312 312 312 312 311 312 312 311 310 310
330 331 332 333 334 336 338 341 342 340 339 336 335 335 332 329 328 325 320 319 318 319 319 317 316 315 316 315 315 317 316 314 312 312 312 311 311 311 311 311 310 310 310 310
331 330 332 333 331 335 340 340 341 340 339 338 338 334 330 327 324 320 320 321 320 319 318 316 315 316 315 316 314 317 317 313 311 312 312 311 311 311 311 310 310 311 312 312
336 336 331 332 334 337 339 340 339 339 337 336 333 332 331 325 323 321 320 321 320 318 319 316 316 316 316 314 315 317 314 312 311 312 311 311 311 311 311 312 313 313 313 313
333 336 337 333 333 333 337 339 337 337 336 334 333 330 325 322 321 321 322 321 319 318 319 317 316 316 316 316 316 313 312 312 311 312 311 311 312 312 312 313 313 313 313 313
332 334 336 336 336 335 336 338 337 335 334 331 330 327 328 325 323 323 322 320 319 318 318 317 316 315 316 315 314 312 312 312 312 311 311 312 312 312 312 313 312 312 312 313
332 334 335 333 333 334 337 336 335 335 333 330 328 328 327 325 323 322 321 319 318 317 317 317 316 316 314 313 312 313 313 313 312 312 312 310 312 313 313 313 313 313 313 313
331 333 333 333 335 335 334 333 332 331 329 328 327 326 326 325 323 320 320 319 318 317 318 316 317 316 313 312 312 313 313 312 311 311 312 312 312 313 313 313 313 313 313 313
332 335 336 332 332 330 330 330 331 330 329 327 326 325 324 323 321 320 320 319 318 318 319 317 316 314 311 312 312 311 311 311 310 311 311 312 313 313 313 314 314 314 314 314
334 332 333 333 331 330 328 330 330 329 328 328 326 324 322 322 321 320 319 318 316 316 317 317 314 311 311 311 311 310 310 311 310 311 312 312 313 314 315 315 315 314 314 314
Wind_Speed
12 7 5 5 9 12 12 10 7 8 7 15 14 9 14 15 12 11 12 12 12 13 14 21 21 20 20 20 21 21 20 19 17 15 15 14 12 10 9 8 8 8 8 7
6 7 7 5 6 9 11 5 12 13 15 14 8 6 10 18 16 15 14 14 14 16 17 21 22 22 22 21 20 20 18 18 16 14 13 11 9 8 7 6 6 6 6 6
4 5 9 5 12 12 9 8 11 8 9 4 6 7 8 14 17 16 17 17 16 16 17 21 23 23 22 22 20 19 18 17 15 13 11 10 9 7 6 5 5 5 5 5
3 6 6 2 2 5 8 12 13 13 12 10 11 6 5 14 19 16 17 17 17 16 20 19 20 21 22 22 21 20 18 17 14 11 9 10 7 7 6 4 4 3 4 4
3 5 3 3 4 3 3 7 5 13 12 8 4 4 6 13 18 18 19 17 20 23 23 23 23 23 22 21 19 18 16 14 12 12 10 9 7 6 6 4 4 3 2 2
3 4 8 2 3 2 2 6 5 4 9 9 6 5 6 18 16 13 14 18 22 23 22 22 22 23 22 21 20 17 15 13 10 9 9 8 8 6 6 6 4 1 1 2
4 4 4 4 4 6 5 3 5 5 9 8 9 5 10 13 13 14 17 20 22 23 22 22 23 22 20 19 16 15 14 12 11 10 9 8 9 8 6 4 3 2 3 3
2 3 6 8 6 7 2 3 6 8 9 10 13 11 7 13 15 16 16 19 21 21 21 21 22 22 19 18 17 17 15 12 10 10 8 9 8 6 4 2 2 0 2 2
6 2 0 6 6 3 3 5 6 8 11 9 11 9 3 9 13 16 17 19 21 21 20 18 18 17 19 19 21 17 15 13 11 9 8 7 5 3 3 2 4 4 4 5
2 4 9 10 10 8 5 5 9 10 10 9 9 6 5 7 8 10 14 18 20 22 20 17 18 19 21 21 19 17 15 13 10 8 6 4 4 5 4 3 4 5 5 5
5 11 10 12 7 6 5 6 8 7 5 8 5 4 5 9 11 10 13 16 22 20 20 18 14 16 19 20 19 15 12 11 9 7 7 6 7 6 4 4 2 2 3 5
5 4 2 4 4 1 4 5 6 4 5 2 5 5 6 5 7 10 12 13 17 21 25 26 27 14 15 16 15 15 13 10 9 8 7 6 5 5 3 3 0 2 5 5
6 1 3 10 8 5 3 3 2 3 2 2 1 5 6 8 10 14 18 16 17 21 21 23 31 27 17 16 14 12 14 12 10 8 5 4 3 3 2 3 5 7 8 8
14 9 9 13 6 4 3 3 4 6 6 5 6 8 9 9 13 17 11 22 25 30 22 22 21 16 19 18 16 13 11 11 6 5 3 2 1 2 2 4 6 7 8 11
12 12 17 6 4 4 1 4 5 6 7 7 8 9 11 11 11 14 18 22 22 29 22 15 26 18 19 17 16 13 11 8 6 4 3 2 2 4 3 5 7 9 10 13
7 7 10 15 10 7 5 4 3 6 7 8 9 12 16 19 21 20 19 19 19 18 22 19 20 20 20 18 15 12 10 8 4 2 1 2 4 2 4 7 8 11 13 15
9 8 6 9 8 11 14 12 8 10 11 11 12 19 21 22 20 21 23 28 19 18 15 17 18 22 19 16 13 10 8 5 6 5 6 5 1 4 7 7 11 13 16 17
15 14 11 3 6 8 10 10 7 10 11 17 15 13 13 15 14 20 25 28 28 23 18 20 20 20 17 14 11 9 6 4 6 6 6 3 3 6 8 9 11 13 16 19
11 15 12 9 8 8 8 10 12 15 20 20 18 15 13 11 13 15 21 24 23 19 16 20 22 20 16 13 10 8 6 5 6 6 4 2 4 5 6 8 10 13 15 17
6 8 10 9 12 12 11 14 20 20 23 21 15 13 12 14 19 19 20 18 19 17 22 19 20 17 15 12 9 6 5 4 8 6 2 3 4 7 8 9 10 11 14 16
11 6 5 7 9 11 15 20 21 19 21 22 18 14 16 22 20 24 17 12 15 17 20 21 17 14 12 11 9 6 6 5 7 4 1 3 5 6 7 10 12 14 16 18
10 12 6 2 7 10 15 21 22 21 20 18 12 11 16 16 18 16 13 13 17 20 20 18 16 15 12 10 8 7 5 5 5 3 1 3 5 8 10 12 15 17 18 19
7 9 10 4 2 5 14 20 23 22 22 21 20 18 18 19 22 21 11 12 18 23 19 17 17 16 12 9 7 7 6 6 6 2 2 5 7 10 13 16 18 18 20 19
5 5 7 5 4 7 11 15 16 18 18 18 20 22 23 21 17 14 13 21 22 24 18 19 19 15 12 9 10 7 5 6 4 3 5 8 10 13 16 18 19 18 18 16
6 6 2 4 5 5 10 16 16 15 18 18 19 20 20 20 20 18 16 21 24 22 17 20 18 15 11 10 7 7 6 5 5 5 7 10 13 16 18 18 18 17 16 13
5 6 3 4 4 6 10 17 14 17 18 18 18 19 19 18 17 18 18 20 23 19 16 19 17 14 10 10 8 8 7 6 7 8 11 13 15 17 18 18 18 15 13 11
4 2 2 2 2 6 10 13 18 16 17 18 19 19 19 20 20 20 21 20 18 17 15 15 15 13 11 10 10 9 8 8 9 11 13 15 16 16 16 17 16 13 10 9
Wind_Direction
221 227 203 196 192 184 205 220 225 305 247 279 283 269 199 190 181 171 162 162 160 151 147 141 140 143 141 139 138 137 137 136 127 121 120 123 122 116 103 101 101 103 97 96
223 204 206 232 210 201 230 253 254 267 277 273 291 272 192 187 180 178 171 169 165 158 151 147 151 151 147 142 138 135 134 131 127 124 125 124 120 119 113 108 101 101 100 96
228 168 163 218 227 215 226 215 233 225 248 270 265 253 222 207 188 175 177 171 165 163 157 157 158 152 145 139 139 140 138 132 132 144 140 130 124 119 108 101 102 92 83 85
120 171 197 119 222 201 222 250 248 257 256 262 276 282 216 197 192 187 176 168 167 165 159 159 154 147 142 141 144 142 139 145 155 151 136 118 115 110 105 105 95 83 74 90
189 202 326 211 178 209 226 278 265 258 285 299 265 215 235 201 196 189 178 171 167 164 158 156 153 147 143 142 144 144 146 156 157 151 131 125 127 114 107 110 87 104 119 71
159 210 220 193 141 117 208 254 82 344 302 289 199 226 231 185 190 182 171 162 157 154 148 149 151 149 147 149 150 146 148 153 152 129 123 132 126 115 118 119 127 156 228 176
167 237 270 186 155 147 204 278 334 307 295 256 219 295 317 177 176 167 162 158 153 153 150 154 152 151 152 151 142 140 140 135 123 126 138 131 118 122 121 120 129 123 120 138
150 216 245 145 138 206 27 320 309 310 298 263 240 285 330 179 170 161 160 153 155 148 146 154 156 154 149 141 145 144 134 131 131 146 140 121 122 121 109 105 84 88 245 236
223 242 120 195 255 228 317 303 321 322 317 288 253 241 170 196 186 168 161 160 160 149 141 152 160 155 147 148 148 143 137 132 137 136 130 134 144 128 113 326 323 323 304 299
288 217 251 255 249 271 291 296 314 311 304 291 273 250 169 167 175 167 157 154 155 151 146 142 152 153 152 148 146 143 140 138 136 144 146 154 140 101 68 29 346 335 322 316
266 276 282 273 267 276 274 295 317 329 293 295 258 199 192 170 167 159 151 151 156 151 138 124 131 134 140 146 146 143 142 132 134 154 139 126 93 62 54 31 9 345 336 325
260 359 291 336 351 311 321 321 309 330 332 255 282 194 165 168 154 147 137 148 138 125 124 128 128 141 144 146 147 144 133 134 163 147 138 119 98 97 73 86 88 314 321 316
270 294 233 269 295 286 270 346 342 332 332 282 175 155 160 153 149 131 129 126 130 134 135 136 139 146 148 146 147 144 142 160 154 140 129 114 136 163 186 234 257 293 298 279
245 260 271 248 254 212 284 104 120 72 57 92 129 134 142 136 132 126 140 129 134 128 134 140 124 137 142 147 149 146 147 145 135 125 122 136 174 245 233 273 305 317 304 288
268 237 248 249 176 215 159 151 112 97 106 113 117 120 127 128 117 112 133 129 129 129 137 138 133 148 143 144 144 146 136 129 128 143 156 182 203 187 226 259 287 302 312 314
312 275 259 238 234 216 218 220 167 138 138 143 134 131 130 128 123 122 117 117 130 131 142 159 149 143 143 147 147 137 128 110 106 133 170 122 156 203 273 284 301 305 309 317
266 254 221 245 222 224 230 238 227 173 160 158 152 147 142 136 134 131 130 138 136 151 169 161 148 145 150 150 138 145 130 108 90 106 117 115 6 316 299 308 311 310 310 314
247 250 255 228 163 203 216 218 187 161 154 142 137 137 135 147 154 154 147 147 148 163 174 162 163 155 151 147 147 141 133 109 86 115 107 85 337 312 311 318 318 314 314 314
240 240 233 208 194 203 196 173 159 152 145 148 152 159 157 154 155 147 151 139 153 161 170 169 165 157 156 161 159 144 153 109 118 117 87 20 348 346 337 327 322 315 316 318
332 245 233 189 181 188 172 170 158 158 166 171 163 156 145 144 146 150 143 154 172 166 167 163 161 162 167 175 168 177 167 123 135 117 100 334 354 338 324 320 306 313 320 320
356 330 270 181 173 183 173 169 162 165 159 154 163 170 151 155 155 152 153 164 170 166 165 166 164 164 175 174 183 197 152 147 146 136 323 342 339 326 320 313 314 317 316 315
350 353 343 255 194 190 183 174 175 170 173 171 178 166 142 142 150 163 173 173 163 167 170 172 173 176 177 189 171 150 144 150 162 193 270 325 310 308 310 315 315 313 312 312
336 343 341 10 16 153 166 178 179 177 173 176 166 171 180 169 165 168 173 165 165 174 171 175 180 182 179 159 157 147 134 173 195 206 282 290 296 302 308 309 309 311 314 314
295 328 335 350 95 149 162 167 172 176 176 175 172 180 173 164 170 177 161 169 178 175 172 176 178 179 166 162 148 140 178 195 194 232 272 294 296 303 302 306 309 313 317 316
297 307 255 172 194 183 160 155 147 155 161 166 167 171 172 172 167 167 161 168 178 179 180 181 178 176 168 159 153 191 205 202 215 254 281 294 300 303 307 311 311 313 317 319
318 309 298 184 189 186 171 162 147 161 159 160 161 167 165 160 157 156 163 169 177 183 175 172 173 171 168 172 192 203 203 211 241 267 288 298 302 307 312 314 318 319 319 320
17 62 90 75 140 194 198 184 155 161 166 168 157 163 161 159 158 162 166 166 168 168 161 162 170 174 178 191 198 199 205 232 260 283 296 302 305 309 315 320 322 320 323 324